Starlink 11197

operational
NORAD ID: 60186 Int'l Des: 2024-124 Owner: SPXS Country: US Constellation: starlink
LEOCIRCULAR

关于 Starlink 11197

正在加载描述...

实时位置

正在加载3D地球...

即将过境

高度历史

Altitude vs Time

uPlot chart will show altitude changes over time

两行轨道根数

1 60186U 24124D 25304.67104109 .00054517 00000-0 45210-3 0 9993
2 60186 53.1554 77.0225 0000865 65.9574 294.1534 15.69698639 76276
Epoch: Oct 31, 2025 • Age: 8 hours

当前状态

高度 359.7 km
速度 7.70 km/s
星下点 19.44°N, 52.42°E
发射日期 Jul 3, 2024
运行时间 1.3 years
类型 internet

技术详情

分类 Payload
质量 960.00 kg
干质量 910.00 kg
总质量 960.00 kg
长度 0.30 m
直径 4.10 m
跨度 29.00 m
形状 Box + pan
制造商 SPXS
平台类型 Starlink V2MD
阶段状态 In Orbit
所有者/国家 SPXS/US

大型星座

Loading constellations...